Location: Lane
(33.5226°N, 79.8788°W)
Time: 16:02:13
(UTC+00:00)

Transit 2A - Pass Details

Date: 28 September 2022
Orbit: 598 x 959 km, 66.7° (Epoch: 06 December)

Event Time Altitude Azimuth Distance (km) Brightness Sun altitude
Rises 13:47:44 0° 346° (NNW) 2,972 8.7 30.5°
Reaches altitude 10° 13:50:12 10° 357° (N) 2,106 8.1 31.0°
Maximum altitude 13:54:24 30° 59° (ENE) 1,270 7.9 31.8°
Drops below altitude 10° 13:58:57 10° 120° (ESE) 2,294 10.0 32.6°
Sets 14:01:44 0° 130° (SE) 3,286 10.3 33.1°
